Location: Jefferson
(30.9666°N, 81.7901°W)
Time: 21:16:13
(UTC+00:00)

ARIANE 6 FM1 Upper Stage - Pass Details

Date: 24 September 2024
Orbit: 563 x 595 km, 62.0° (Epoch: 13 October)

Event Time Altitude Azimuth Distance (km) Brightness Sun altitude
Rises 00:51:49 0° 251° (WSW) 2,764 7.2 -20.0°
Reaches altitude 10° 00:54:50 10° 274° (W) 1,877 6.5 -20.7°
Maximum altitude 00:57:24 16° 312° (NW) 1,555 5.7 -21.2°
Drops below altitude 10° 01:00:00 10° 349° (N) 1,895 5.6 -21.7°
Sets 01:03:04 0° 12° (NNE) 2,805 6.3 -22.4°
